owner,sensor,date,latitude,longitude,vertical_datum,wind_speed,wind_to_direction,wind_speed_of_gust,qcFlag 
DISL,ioos:station:DISL:KATA:1,2014-05-01T00:00:00Z,30.2583,-88.2131,0.0,6.71,267.3,-9999.0,'1111122,1111122,1111122' 
DISL,ioos:station:DISL:KATA:1,2014-05-01T00:30:00Z,30.2583,-88.2131,0.0,8.2,273.5,-9999.0,'1111122,1111122,1111122' 
DISL,ioos:station:DISL:KATA:1,2014-05-01T01:00:00Z,30.2583,-88.2131,0.0,7.71,282.8,-9999.0,'1111122,1111122,1111122' 
DISL,ioos:station:DISL:KATA:1,2014-05-01T01:30:00Z,30.2583,-88.2131,0.0,8.55,297.3,-9999.0,'1111122,1111122,1111122' 
DISL,ioos:station:DISL:KATA:1,2014-05-01T02:00:00Z,30.2583,-88.2131,0.0,8.45,295.3,-9999.0,'1111122,1111122,1111122' 
DISL,ioos:station:DISL:KATA:1,2014-05-01T02:30:00Z,30.2583,-88.2131,0.0,9.86,287.7,-9999.0,'1111122,1111122,1111122' 
DISL,ioos:station:DISL:KATA:1,2014-05-01T03:00:00Z,30.2583,-88.2131,0.0,10.13,326.4,-9999.0,'1111122,1111122,1111122' 
DISL,ioos:station:DISL:KATA:1,2014-05-01T03:30:00Z,30.2583,-88.2131,0.0,7.99,331.2,-9999.0,'1111122,1111122,1111122' 
DISL,ioos:station:DISL:KATA:1,2014-05-01T04:00:00Z,30.2583,-88.2131,0.0,6.48,338.9,-9999.0,'1111122,1111122,1111122' 
DISL,ioos:station:DISL:KATA:1,2014-05-01T04:30:00Z,30.2583,-88.2131,0.0,8.57,335.3,-9999.0,'1111122,1111122,1111122' 
DISL,ioos:station:DISL:KATA:1,2014-05-01T05:00:00Z,30.2583,-88.2131,0.0,7.25,348.6,-9999.0,'1111122,1111122,1111122' 
DISL,ioos:station:DISL:KATA:1,2014-05-01T05:30:00Z,30.2583,-88.2131,0.0,7.71,338.8,-9999.0,'1111122,1111122,1111122' 
DISL,ioos:station:DISL:KATA:1,2014-05-01T06:00:00Z,30.2583,-88.2131,0.0,8.43,338.1,-9999.0,'1111122,1111122,1111122' 
DISL,ioos:station:DISL:KATA:1,2014-05-01T06:30:00Z,30.2583,-88.2131,0.0,8.57,357.8,-9999.0,'1111122,1111122,1111122' 
DISL,ioos:station:DISL:KATA:1,2014-05-01T07:00:00Z,30.2583,-88.2131,0.0,8.47,352.2,-9999.0,'1111122,1111122,1111122' 
DISL,ioos:station:DISL:KATA:1,2014-05-01T07:30:00Z,30.2583,-88.2131,0.0,10.73,2.342,-9999.0,'1111122,1111122,1111122' 
DISL,ioos:station:DISL:KATA:1,2014-05-01T08:00:00Z,30.2583,-88.2131,0.0,10.94,354.4,-9999.0,'1111122,1111122,1111122' 
DISL,ioos:station:DISL:KATA:1,2014-05-01T08:30:00Z,30.2583,-88.2131,0.0,10.44,359.4,-9999.0,'1111122,1111122,1111122' 
DISL,ioos:station:DISL:KATA:1,2014-05-01T09:00:00Z,30.2583,-88.2131,0.0,10.73,6.219,-9999.0,'1111122,1111122,1111122' 
DISL,ioos:station:DISL:KATA:1,2014-05-01T09:30:00Z,30.2583,-88.2131,0.0,10.03,3.314,-9999.0,'1111122,1111122,1111122' 
DISL,ioos:station:DISL:KATA:1,2014-05-01T10:00:00Z,30.2583,-88.2131,0.0,9.94,9.42,-9999.0,'1111122,1111122,1111122' 
DISL,ioos:station:DISL:KATA:1,2014-05-01T10:30:00Z,30.2583,-88.2131,0.0,10.54,1.3,-9999.0,'1111122,1111122,1111122' 
DISL,ioos:station:DISL:KATA:1,2014-05-01T11:00:00Z,30.2583,-88.2131,0.0,10.52,7.767,-9999.0,'1111122,1111122,1111122' 
DISL,ioos:station:DISL:KATA:1,2014-05-01T11:30:00Z,30.2583,-88.2131,0.0,10.74,9.05,-9999.0,'1111122,1111122,1111122' 
DISL,ioos:station:DISL:KATA:1,2014-05-01T12:00:00Z,30.2583,-88.2131,0.0,10.34,12.79,-9999.0,'1111122,1111122,1111122' 
DISL,ioos:station:DISL:KATA:1,2014-05-01T12:30:00Z,30.2583,-88.2131,0.0,10.79,7.608,-9999.0,'1111122,1111122,1111122' 
DISL,ioos:station:DISL:KATA:1,2014-05-01T13:00:00Z,30.2583,-88.2131,0.0,9.92,18.42,-9999.0,'1111122,1111122,1111122' 
DISL,ioos:station:DISL:KATA:1,2014-05-01T13:30:00Z,30.2583,-88.2131,0.0,9.13,26.07,-9999.0,'1111122,1111122,1111122' 
DISL,ioos:station:DISL:KATA:1,2014-05-01T14:00:00Z,30.2583,-88.2131,0.0,8.52,18.74,-9999.0,'1111122,1111122,1111122' 
DISL,ioos:station:DISL:KATA:1,2014-05-01T14:30:00Z,30.2583,-88.2131,0.0,8.62,16.54,-9999.0,'1111122,1111122,1111122' 
DISL,ioos:station:DISL:KATA:1,2014-05-01T15:00:00Z,30.2583,-88.2131,0.0,6.57,12.04,-9999.0,'1111122,1111122,1111122' 
DISL,ioos:station:DISL:KATA:1,2014-05-01T15:30:00Z,30.2583,-88.2131,0.0,5.57,12.69,-9999.0,'1111122,1111122,1111122' 
DISL,ioos:station:DISL:KATA:1,2014-05-01T16:00:00Z,30.2583,-88.2131,0.0,4.73,22.51,-9999.0,'1111122,1111122,1111122' 
DISL,ioos:station:DISL:KATA:1,2014-05-01T16:30:00Z,30.2583,-88.2131,0.0,3.92,25.36,-9999.0,'1111122,1111122,1111122' 
DISL,ioos:station:DISL:KATA:1,2014-05-01T17:00:00Z,30.2583,-88.2131,0.0,3.74,62.95,-9999.0,'1111122,1111122,1111122' 
DISL,ioos:station:DISL:KATA:1,2014-05-01T17:30:00Z,30.2583,-88.2131,0.0,4.71,72.71,-9999.0,'1111122,1111122,1111122' 
DISL,ioos:station:DISL:KATA:1,2014-05-01T18:00:00Z,30.2583,-88.2131,0.0,6.02,63.56,-9999.0,'1111122,1111122,1111122' 
DISL,ioos:station:DISL:KATA:1,2014-05-01T18:30:00Z,30.2583,-88.2131,0.0,5.77,64.05,-9999.0,'1111122,1111122,1111122' 
DISL,ioos:station:DISL:KATA:1,2014-05-01T19:00:00Z,30.2583,-88.2131,0.0,5.54,73.38,-9999.0,'1111122,1111122,1111122' 
DISL,ioos:station:DISL:KATA:1,2014-05-01T19:30:00Z,30.2583,-88.2131,0.0,4.61,78.35,-9999.0,'1111122,1111122,1111122' 
DISL,ioos:station:DISL:KATA:1,2014-05-01T20:00:00Z,30.2583,-88.2131,0.0,4.39,102.6,-9999.0,'1111122,1111122,1111122' 
DISL,ioos:station:DISL:KATA:1,2014-05-01T20:30:00Z,30.2583,-88.2131,0.0,3.25,101.2,-9999.0,'1111122,1111122,1111122' 
DISL,ioos:station:DISL:KATA:1,2014-05-01T21:00:00Z,30.2583,-88.2131,0.0,1.73,155.5,-9999.0,'1111122,1111122,1111122' 
DISL,ioos:station:DISL:KATA:1,2014-05-01T21:30:00Z,30.2583,-88.2131,0.0,1.31,108.1,-9999.0,'1111122,1111122,1111122' 
DISL,ioos:station:DISL:KATA:1,2014-05-01T22:00:00Z,30.2583,-88.2131,0.0,2.05,186.8,-9999.0,'1111122,1111122,1111122' 
DISL,ioos:station:DISL:KATA:1,2014-05-01T22:30:00Z,30.2583,-88.2131,0.0,1.73,187.2,-9999.0,'1111122,1111122,1111122' 
DISL,ioos:station:DISL:KATA:1,2014-05-01T23:00:00Z,30.2583,-88.2131,0.0,2.38,205.8,-9999.0,'1111122,1111122,1111122' 
DISL,ioos:station:DISL:KATA:1,2014-05-01T23:30:00Z,30.2583,-88.2131,0.0,2.59,233.4,-9999.0,'1111122,1111122,1111122' 
DISL,ioos:station:DISL:KATA:1,2014-05-02T00:00:00Z,30.2583,-88.2131,0.0,2.19,255.9,-9999.0,'1111122,1111122,1111122' 
DISL,ioos:station:DISL:KATA:1,2014-05-02T00:30:00Z,30.2583,-88.2131,0.0,2.34,272.4,-9999.0,'1111122,1111122,1111122' 
DISL,ioos:station:DISL:KATA:1,2014-05-02T01:00:00Z,30.2583,-88.2131,0.0,3.11,288.0,-9999.0,'1111122,1111122,1111122' 
DISL,ioos:station:DISL:KATA:1,2014-05-02T01:30:00Z,30.2583,-88.2131,0.0,4.26,281.5,-9999.0,'1111122,1111122,1111122' 
DISL,ioos:station:DISL:KATA:1,2014-05-02T02:00:00Z,30.2583,-88.2131,0.0,4.21,276.1,-9999.0,'1111122,1111122,1111122' 
DISL,ioos:station:DISL:KATA:1,2014-05-02T02:30:00Z,30.2583,-88.2131,0.0,4.19,272.7,-9999.0,'1111122,1111122,1111122' 
DISL,ioos:station:DISL:KATA:1,2014-05-02T03:00:00Z,30.2583,-88.2131,0.0,5.85,277.3,-9999.0,'1111122,1111122,1111122' 
DISL,ioos:station:DISL:KATA:1,2014-05-02T03:30:00Z,30.2583,-88.2131,0.0,5.48,262.8,-9999.0,'1111122,1111122,1111122' 
DISL,ioos:station:DISL:KATA:1,2014-05-02T04:00:00Z,30.2583,-88.2131,0.0,4.86,252.7,-9999.0,'1111122,1111122,1111122' 
DISL,ioos:station:DISL:KATA:1,2014-05-02T04:30:00Z,30.2583,-88.2131,0.0,3.8,308.5,-9999.0,'1111122,1111122,1111122' 
DISL,ioos:station:DISL:KATA:1,2014-05-02T05:00:00Z,30.2583,-88.2131,0.0,0.89,17.28,-9999.0,'1111122,1111122,1111122' 
DISL,ioos:station:DISL:KATA:1,2014-05-02T05:30:00Z,30.2583,-88.2131,0.0,0.83,216.3,-9999.0,'1111122,1111122,1111122' 
DISL,ioos:station:DISL:KATA:1,2014-05-02T06:00:00Z,30.2583,-88.2131,0.0,0.39,289.5,-9999.0,'1111122,1111122,1111122' 
DISL,ioos:station:DISL:KATA:1,2014-05-02T06:30:00Z,30.2583,-88.2131,0.0,2.56,15.65,-9999.0,'1111122,1111122,1111122' 
DISL,ioos:station:DISL:KATA:1,2014-05-02T07:00:00Z,30.2583,-88.2131,0.0,2.8,354.8,-9999.0,'1111122,1111122,1111122' 
DISL,ioos:station:DISL:KATA:1,2014-05-02T07:30:00Z,30.2583,-88.2131,0.0,4.56,341.7,-9999.0,'1111122,1111122,1111122' 
DISL,ioos:station:DISL:KATA:1,2014-05-02T08:00:00Z,30.2583,-88.2131,0.0,3.96,352.0,-9999.0,'1111122,1111122,1111122' 
DISL,ioos:station:DISL:KATA:1,2014-05-02T08:30:00Z,30.2583,-88.2131,0.0,4.65,12.3,-9999.0,'1111122,1111122,1111122' 
DISL,ioos:station:DISL:KATA:1,2014-05-02T09:00:00Z,30.2583,-88.2131,0.0,5.17,28.2,-9999.0,'1111122,1111122,1111122' 
DISL,ioos:station:DISL:KATA:1,2014-05-02T09:30:00Z,30.2583,-88.2131,0.0,5.59,36.57,-9999.0,'1111122,1111122,1111122' 
DISL,ioos:station:DISL:KATA:1,2014-05-02T10:00:00Z,30.2583,-88.2131,0.0,5.27,43.91,-9999.0,'1111122,1111122,1111122' 
DISL,ioos:station:DISL:KATA:1,2014-05-02T10:30:00Z,30.2583,-88.2131,0.0,5.53,24.74,-9999.0,'1111122,1111122,1111122' 
DISL,ioos:station:DISL:KATA:1,2014-05-02T11:00:00Z,30.2583,-88.2131,0.0,6.43,25.2,-9999.0,'1111122,1111122,1111122' 
DISL,ioos:station:DISL:KATA:1,2014-05-02T11:30:00Z,30.2583,-88.2131,0.0,5.6,39.77,-9999.0,'1111122,1111122,1111122' 
DISL,ioos:station:DISL:KATA:1,2014-05-02T12:00:00Z,30.2583,-88.2131,0.0,5.3,40.1,-9999.0,'1111122,1111122,1111122' 
DISL,ioos:station:DISL:KATA:1,2014-05-02T12:30:00Z,30.2583,-88.2131,0.0,5.27,37.97,-9999.0,'1111122,1111122,1111122' 
DISL,ioos:station:DISL:KATA:1,2014-05-02T13:00:00Z,30.2583,-88.2131,0.0,5.54,45.81,-9999.0,'1111122,1111122,1111122' 
DISL,ioos:station:DISL:KATA:1,2014-05-02T13:30:00Z,30.2583,-88.2131,0.0,3.97,40.66,-9999.0,'1111122,1111122,1111122' 
DISL,ioos:station:DISL:KATA:1,2014-05-02T14:00:00Z,30.2583,-88.2131,0.0,3.75,31.65,-9999.0,'1111122,1111122,1111122' 
DISL,ioos:station:DISL:KATA:1,2014-05-02T14:30:00Z,30.2583,-88.2131,0.0,3.08,28.32,-9999.0,'1111122,1111122,1111122' 
DISL,ioos:station:DISL:KATA:1,2014-05-02T15:00:00Z,30.2583,-88.2131,0.0,3.07,57.09,-9999.0,'1111122,1111122,1111122' 
DISL,ioos:station:DISL:KATA:1,2014-05-02T15:30:00Z,30.2583,-88.2131,0.0,1.48,61.81,-9999.0,'1111122,1111122,1111122' 
DISL,ioos:station:DISL:KATA:1,2014-05-02T16:00:00Z,30.2583,-88.2131,0.0,2.5,83.8,-9999.0,'1111122,1111122,1111122' 
DISL,ioos:station:DISL:KATA:1,2014-05-02T16:30:00Z,30.2583,-88.2131,0.0,2.93,118.0,-9999.0,'1111122,1111122,1111122' 
DISL,ioos:station:DISL:KATA:1,2014-05-02T17:00:00Z,30.2583,-88.2131,0.0,2.65,112.0,-9999.0,'1111122,1111122,1111122' 
DISL,ioos:station:DISL:KATA:1,2014-05-02T17:30:00Z,30.2583,-88.2131,0.0,3.06,98.7,-9999.0,'1111122,1111122,1111122' 
DISL,ioos:station:DISL:KATA:1,2014-05-02T18:00:00Z,30.2583,-88.2131,0.0,1.41,169.4,-9999.0,'1111122,1111122,1111122' 
DISL,ioos:station:DISL:KATA:1,2014-05-02T18:30:00Z,30.2583,-88.2131,0.0,2.58,181.0,-9999.0,'1111122,1111122,1111122' 
DISL,ioos:station:DISL:KATA:1,2014-05-02T19:00:00Z,30.2583,-88.2131,0.0,2.53,169.6,-9999.0,'1111122,1111122,1111122' 
DISL,ioos:station:DISL:KATA:1,2014-05-02T19:30:00Z,30.2583,-88.2131,0.0,2.52,191.8,-9999.0,'1111122,1111122,1111122' 
DISL,ioos:station:DISL:KATA:1,2014-05-02T20:00:00Z,30.2583,-88.2131,0.0,2.62,203.6,-9999.0,'1111122,1111122,1111122' 
DISL,ioos:station:DISL:KATA:1,2014-05-02T20:30:00Z,30.2583,-88.2131,0.0,2.9,181.0,-9999.0,'1111122,1111122,1111122' 
DISL,ioos:station:DISL:KATA:1,2014-05-02T21:00:00Z,30.2583,-88.2131,0.0,2.62,205.5,-9999.0,'1111122,1111122,1111122' 
DISL,ioos:station:DISL:KATA:1,2014-05-02T21:30:00Z,30.2583,-88.2131,0.0,4.18,215.5,-9999.0,'1111122,1111122,1111122' 
DISL,ioos:station:DISL:KATA:1,2014-05-02T22:00:00Z,30.2583,-88.2131,0.0,3.98,228.9,-9999.0,'1111122,1111122,1111122' 
DISL,ioos:station:DISL:KATA:1,2014-05-02T22:30:00Z,30.2583,-88.2131,0.0,5.98,230.6,-9999.0,'1111122,1111122,1111122' 
DISL,ioos:station:DISL:KATA:1,2014-05-02T23:00:00Z,30.2583,-88.2131,0.0,3.57,237.1,-9999.0,'1111122,1111122,1111122' 
DISL,ioos:station:DISL:KATA:1,2014-05-02T23:30:00Z,30.2583,-88.2131,0.0,4.11,239.4,-9999.0,'1111122,1111122,1111122' 
DISL,ioos:station:DISL:KATA:1,2014-05-03T00:00:00Z,30.2583,-88.2131,0.0,3.89,260.9,-9999.0,'1111122,1111122,1111122' 
DISL,ioos:station:DISL:KATA:1,2014-05-03T00:30:00Z,30.2583,-88.2131,0.0,4.43,251.2,-9999.0,'1111122,1111122,1111122' 
DISL,ioos:station:DISL:KATA:1,2014-05-03T01:00:00Z,30.2583,-88.2131,0.0,4.64,258.6,-9999.0,'1111122,1111122,1111122' 
DISL,ioos:station:DISL:KATA:1,2014-05-03T01:30:00Z,30.2583,-88.2131,0.0,4.36,265.3,-9999.0,'1111122,1111122,1111122' 
DISL,ioos:station:DISL:KATA:1,2014-05-03T02:00:00Z,30.2583,-88.2131,0.0,5.21,279.8,-9999.0,'1111122,1111122,1111122' 
DISL,ioos:station:DISL:KATA:1,2014-05-03T02:30:00Z,30.2583,-88.2131,0.0,5.08,305.7,-9999.0,'1111122,1111122,1111122' 
DISL,ioos:station:DISL:KATA:1,2014-05-03T03:00:00Z,30.2583,-88.2131,0.0,5.63,322.8,-9999.0,'1111122,1111122,1111122' 
DISL,ioos:station:DISL:KATA:1,2014-05-03T03:30:00Z,30.2583,-88.2131,0.0,4.69,336.3,-9999.0,'1111122,1111122,1111122' 
DISL,ioos:station:DISL:KATA:1,2014-05-03T04:00:00Z,30.2583,-88.2131,0.0,3.93,345.1,-9999.0,'1111122,1111122,1111122' 
DISL,ioos:station:DISL:KATA:1,2014-05-03T04:30:00Z,30.2583,-88.2131,0.0,3.92,357.3,-9999.0,'1111122,1111122,1111122' 
DISL,ioos:station:DISL:KATA:1,2014-05-03T05:00:00Z,30.2583,-88.2131,0.0,4.08,355.0,-9999.0,'1111122,1111122,1111122' 
DISL,ioos:station:DISL:KATA:1,2014-05-03T05:30:00Z,30.2583,-88.2131,0.0,3.61,354.4,-9999.0,'1111122,1111122,1111122' 
DISL,ioos:station:DISL:KATA:1,2014-05-03T06:00:00Z,30.2583,-88.2131,0.0,4.17,348.2,-9999.0,'1111122,1111122,1111122' 
DISL,ioos:station:DISL:KATA:1,2014-05-03T06:30:00Z,30.2583,-88.2131,0.0,4.71,344.6,-9999.0,'1111122,1111122,1111122' 
DISL,ioos:station:DISL:KATA:1,2014-05-03T07:00:00Z,30.2583,-88.2131,0.0,4.97,335.7,-9999.0,'1111122,1111122,1111122' 
DISL,ioos:station:DISL:KATA:1,2014-05-03T07:30:00Z,30.2583,-88.2131,0.0,3.37,340.4,-9999.0,'1111122,1111122,1111122' 
DISL,ioos:station:DISL:KATA:1,2014-05-03T08:00:00Z,30.2583,-88.2131,0.0,3.29,345.4,-9999.0,'1111122,1111122,1111122' 
DISL,ioos:station:DISL:KATA:1,2014-05-03T08:30:00Z,30.2583,-88.2131,0.0,5.13,340.3,-9999.0,'1111122,1111122,1111122' 
DISL,ioos:station:DISL:KATA:1,2014-05-03T09:00:00Z,30.2583,-88.2131,0.0,5.04,338.2,-9999.0,'1111122,1111122,1111122' 
DISL,ioos:station:DISL:KATA:1,2014-05-03T09:30:00Z,30.2583,-88.2131,0.0,5.38,336.9,-9999.0,'1111122,1111122,1111122' 
DISL,ioos:station:DISL:KATA:1,2014-05-03T10:00:00Z,30.2583,-88.2131,0.0,5.58,336.4,-9999.0,'1111122,1111122,1111122' 
DISL,ioos:station:DISL:KATA:1,2014-05-03T10:30:00Z,30.2583,-88.2131,0.0,5.33,339.6,-9999.0,'1111122,1111122,1111122' 
DISL,ioos:station:DISL:KATA:1,2014-05-03T11:00:00Z,30.2583,-88.2131,0.0,5.18,340.2,-9999.0,'1111122,1111122,1111122' 
DISL,ioos:station:DISL:KATA:1,2014-05-03T11:30:00Z,30.2583,-88.2131,0.0,5.69,331.9,-9999.0,'1111122,1111122,1111122' 
DISL,ioos:station:DISL:KATA:1,2014-05-03T12:00:00Z,30.2583,-88.2131,0.0,5.66,329.6,-9999.0,'1111122,1111122,1111122' 
DISL,ioos:station:DISL:KATA:1,2014-05-03T12:30:00Z,30.2583,-88.2131,0.0,5.76,322.1,-9999.0,'1111122,1111122,1111122' 
DISL,ioos:station:DISL:KATA:1,2014-05-03T13:00:00Z,30.2583,-88.2131,0.0,6.18,324.6,-9999.0,'1111122,1111122,1111122' 
DISL,ioos:station:DISL:KATA:1,2014-05-03T13:30:00Z,30.2583,-88.2131,0.0,6.22,325.5,-9999.0,'1111122,1111122,1111122' 
DISL,ioos:station:DISL:KATA:1,2014-05-03T14:00:00Z,30.2583,-88.2131,0.0,5.33,323.5,-9999.0,'1111122,1111122,1111122' 
DISL,ioos:station:DISL:KATA:1,2014-05-03T14:30:00Z,30.2583,-88.2131,0.0,4.91,321.2,-9999.0,'1111122,1111122,1111122' 
DISL,ioos:station:DISL:KATA:1,2014-05-03T15:00:00Z,30.2583,-88.2131,0.0,4.58,320.8,-9999.0,'1111122,1111122,1111122' 
DISL,ioos:station:DISL:KATA:1,2014-05-03T15:30:00Z,30.2583,-88.2131,0.0,4.82,309.2,-9999.0,'1111122,1111122,1111122' 
DISL,ioos:station:DISL:KATA:1,2014-05-03T16:00:00Z,30.2583,-88.2131,0.0,3.99,307.4,-9999.0,'1111122,1111122,1111122' 
DISL,ioos:station:DISL:KATA:1,2014-05-03T16:30:00Z,30.2583,-88.2131,0.0,3.89,291.5,-9999.0,'1111122,1111122,1111122' 
DISL,ioos:station:DISL:KATA:1,2014-05-03T17:00:00Z,30.2583,-88.2131,0.0,4.13,262.5,-9999.0,'1111122,1111122,1111122' 
DISL,ioos:station:DISL:KATA:1,2014-05-03T17:30:00Z,30.2583,-88.2131,0.0,4.19,256.7,-9999.0,'1111122,1111122,1111122' 
DISL,ioos:station:DISL:KATA:1,2014-05-03T18:00:00Z,30.2583,-88.2131,0.0,3.8,258.6,-9999.0,'1111122,1111122,1111122' 
DISL,ioos:station:DISL:KATA:1,2014-05-03T18:30:00Z,30.2583,-88.2131,0.0,4.84,243.1,-9999.0,'1111122,1111122,1111122' 
DISL,ioos:station:DISL:KATA:1,2014-05-03T19:00:00Z,30.2583,-88.2131,0.0,5.8,242.0,-9999.0,'1111122,1111122,1111122' 
DISL,ioos:station:DISL:KATA:1,2014-05-03T19:30:00Z,30.2583,-88.2131,0.0,6.35,241.8,-9999.0,'1111122,1111122,1111122' 
DISL,ioos:station:DISL:KATA:1,2014-05-03T20:00:00Z,30.2583,-88.2131,0.0,6.49,239.6,-9999.0,'1111122,1111122,1111122' 
DISL,ioos:station:DISL:KATA:1,2014-05-03T20:30:00Z,30.2583,-88.2131,0.0,6.78,238.4,-9999.0,'1111122,1111122,1111122' 
DISL,ioos:station:DISL:KATA:1,2014-05-03T21:00:00Z,30.2583,-88.2131,0.0,6.44,239.0,-9999.0,'1111122,1111122,1111122' 
DISL,ioos:station:DISL:KATA:1,2014-05-03T21:30:00Z,30.2583,-88.2131,0.0,6.79,241.8,-9999.0,'1111122,1111122,1111122' 
DISL,ioos:station:DISL:KATA:1,2014-05-03T22:00:00Z,30.2583,-88.2131,0.0,6.61,240.6,-9999.0,'1111122,1111122,1111122' 
DISL,ioos:station:DISL:KATA:1,2014-05-03T22:30:00Z,30.2583,-88.2131,0.0,6.73,245.6,-9999.0,'1111122,1111122,1111122' 
DISL,ioos:station:DISL:KATA:1,2014-05-03T23:00:00Z,30.2583,-88.2131,0.0,7.18,255.4,-9999.0,'1111122,1111122,1111122' 
DISL,ioos:station:DISL:KATA:1,2014-05-03T23:30:00Z,30.2583,-88.2131,0.0,7.14,254.1,-9999.0,'1111122,1111122,1111122' 
DISL,ioos:station:DISL:KATA:1,2014-05-04T00:00:00Z,30.2583,-88.2131,0.0,6.91,246.1,-9999.0,'1111122,1111122,1111122' 
DISL,ioos:station:DISL:KATA:1,2014-05-04T00:30:00Z,30.2583,-88.2131,0.0,6.38,244.9,-9999.0,'1111122,1111122,1111122' 
DISL,ioos:station:DISL:KATA:1,2014-05-04T01:00:00Z,30.2583,-88.2131,0.0,5.68,242.1,-9999.0,'1111122,1111122,1111122' 
DISL,ioos:station:DISL:KATA:1,2014-05-04T01:30:00Z,30.2583,-88.2131,0.0,5.99,242.6,-9999.0,'1111122,1111122,1111122' 
DISL,ioos:station:DISL:KATA:1,2014-05-04T02:00:00Z,30.2583,-88.2131,0.0,6.73,240.4,-9999.0,'1111122,1111122,1111122' 
DISL,ioos:station:DISL:KATA:1,2014-05-04T02:30:00Z,30.2583,-88.2131,0.0,6.2,237.3,-9999.0,'1111122,1111122,1111122' 
DISL,ioos:station:DISL:KATA:1,2014-05-04T03:00:00Z,30.2583,-88.2131,0.0,6.28,237.0,-9999.0,'1111122,1111122,1111122' 
DISL,ioos:station:DISL:KATA:1,2014-05-04T03:30:00Z,30.2583,-88.2131,0.0,5.8,235.8,-9999.0,'1111122,1111122,1111122' 
DISL,ioos:station:DISL:KATA:1,2014-05-04T04:00:00Z,30.2583,-88.2131,0.0,5.62,239.1,-9999.0,'1111122,1111122,1111122' 
DISL,ioos:station:DISL:KATA:1,2014-05-04T04:30:00Z,30.2583,-88.2131,0.0,5.26,238.1,-9999.0,'1111122,1111122,1111122' 
DISL,ioos:station:DISL:KATA:1,2014-05-04T05:00:00Z,30.2583,-88.2131,0.0,4.37,238.2,-9999.0,'1111122,1111122,1111122' 
DISL,ioos:station:DISL:KATA:1,2014-05-04T05:30:00Z,30.2583,-88.2131,0.0,4.58,247.7,-9999.0,'1111122,1111122,1111122' 
DISL,ioos:station:DISL:KATA:1,2014-05-04T06:00:00Z,30.2583,-88.2131,0.0,4.59,248.8,-9999.0,'1111122,1111122,1111122' 
DISL,ioos:station:DISL:KATA:1,2014-05-04T06:30:00Z,30.2583,-88.2131,0.0,5.18,261.7,-9999.0,'1111122,1111122,1111122' 
DISL,ioos:station:DISL:KATA:1,2014-05-04T07:00:00Z,30.2583,-88.2131,0.0,6.11,273.1,-9999.0,'1111122,1111122,1111122' 
DISL,ioos:station:DISL:KATA:1,2014-05-04T07:30:00Z,30.2583,-88.2131,0.0,6.02,280.7,-9999.0,'1111122,1111122,1111122' 
DISL,ioos:station:DISL:KATA:1,2014-05-04T08:00:00Z,30.2583,-88.2131,0.0,6.39,299.8,-9999.0,'1111122,1111122,1111122' 
DISL,ioos:station:DISL:KATA:1,2014-05-04T08:30:00Z,30.2583,-88.2131,0.0,6.26,302.6,-9999.0,'1111122,1111122,1111122' 
DISL,ioos:station:DISL:KATA:1,2014-05-04T09:00:00Z,30.2583,-88.2131,0.0,7.33,300.3,-9999.0,'1111122,1111122,1111122' 
DISL,ioos:station:DISL:KATA:1,2014-05-04T09:30:00Z,30.2583,-88.2131,0.0,7.4,309.5,-9999.0,'1111122,1111122,1111122' 
DISL,ioos:station:DISL:KATA:1,2014-05-04T10:00:00Z,30.2583,-88.2131,0.0,6.66,305.9,-9999.0,'1111122,1111122,1111122' 
DISL,ioos:station:DISL:KATA:1,2014-05-04T10:30:00Z,30.2583,-88.2131,0.0,6.31,310.8,-9999.0,'1111122,1111122,1111122' 
DISL,ioos:station:DISL:KATA:1,2014-05-04T11:00:00Z,30.2583,-88.2131,0.0,5.99,289.3,-9999.0,'1111122,1111122,1111122' 
DISL,ioos:station:DISL:KATA:1,2014-05-04T11:30:00Z,30.2583,-88.2131,0.0,5.74,285.9,-9999.0,'1111122,1111122,1111122' 
DISL,ioos:station:DISL:KATA:1,2014-05-04T12:00:00Z,30.2583,-88.2131,0.0,4.94,292.6,-9999.0,'1111122,1111122,1111122' 
DISL,ioos:station:DISL:KATA:1,2014-05-04T12:30:00Z,30.2583,-88.2131,0.0,5.04,302.0,-9999.0,'1111122,1111122,1111122' 
DISL,ioos:station:DISL:KATA:1,2014-05-04T13:00:00Z,30.2583,-88.2131,0.0,4.58,308.1,-9999.0,'1111122,1111122,1111122' 
DISL,ioos:station:DISL:KATA:1,2014-05-04T13:30:00Z,30.2583,-88.2131,0.0,4.26,312.8,-9999.0,'1111122,1111122,1111122' 
DISL,ioos:station:DISL:KATA:1,2014-05-04T14:00:00Z,30.2583,-88.2131,0.0,4.03,323.2,-9999.0,'1111122,1111122,1111122' 
DISL,ioos:station:DISL:KATA:1,2014-05-04T14:30:00Z,30.2583,-88.2131,0.0,3.85,310.8,-9999.0,'1111122,1111122,1111122' 
DISL,ioos:station:DISL:KATA:1,2014-05-04T15:00:00Z,30.2583,-88.2131,0.0,3.29,290.1,-9999.0,'1111122,1111122,1111122' 
DISL,ioos:station:DISL:KATA:1,2014-05-04T15:30:00Z,30.2583,-88.2131,0.0,3.66,265.0,-9999.0,'1111122,1111122,1111122' 
DISL,ioos:station:DISL:KATA:1,2014-05-04T16:00:00Z,30.2583,-88.2131,0.0,3.65,257.8,-9999.0,'1111122,1111122,1111122' 
DISL,ioos:station:DISL:KATA:1,2014-05-04T16:30:00Z,30.2583,-88.2131,0.0,3.61,263.2,-9999.0,'1111122,1111122,1111122' 
DISL,ioos:station:DISL:KATA:1,2014-05-04T17:00:00Z,30.2583,-88.2131,0.0,3.25,263.5,-9999.0,'1111122,1111122,1111122' 
DISL,ioos:station:DISL:KATA:1,2014-05-04T17:30:00Z,30.2583,-88.2131,0.0,3.23,259.6,-9999.0,'1111122,1111122,1111122' 
DISL,ioos:station:DISL:KATA:1,2014-05-04T18:00:00Z,30.2583,-88.2131,0.0,3.89,249.3,-9999.0,'1111122,1111122,1111122' 
DISL,ioos:station:DISL:KATA:1,2014-05-04T18:30:00Z,30.2583,-88.2131,0.0,5.05,232.0,-9999.0,'1111122,1111122,1111122' 
DISL,ioos:station:DISL:KATA:1,2014-05-04T19:00:00Z,30.2583,-88.2131,0.0,5.96,230.5,-9999.0,'1111122,1111122,1111122' 
DISL,ioos:station:DISL:KATA:1,2014-05-04T19:30:00Z,30.2583,-88.2131,0.0,5.63,225.4,-9999.0,'1111122,1111122,1111122' 
DISL,ioos:station:DISL:KATA:1,2014-05-04T20:00:00Z,30.2583,-88.2131,0.0,5.55,223.8,-9999.0,'1111122,1111122,1111122' 
DISL,ioos:station:DISL:KATA:1,2014-05-04T20:30:00Z,30.2583,-88.2131,0.0,5.68,225.2,-9999.0,'1111122,1111122,1111122' 
DISL,ioos:station:DISL:KATA:1,2014-05-04T21:00:00Z,30.2583,-88.2131,0.0,5.77,226.2,-9999.0,'1111122,1111122,1111122' 
DISL,ioos:station:DISL:KATA:1,2014-05-04T21:30:00Z,30.2583,-88.2131,0.0,5.99,220.2,-9999.0,'1111122,1111122,1111122' 
DISL,ioos:station:DISL:KATA:1,2014-05-04T22:00:00Z,30.2583,-88.2131,0.0,5.46,225.0,-9999.0,'1111122,1111122,1111122' 
DISL,ioos:station:DISL:KATA:1,2014-05-04T22:30:00Z,30.2583,-88.2131,0.0,5.23,229.2,-9999.0,'1111122,1111122,1111122' 
DISL,ioos:station:DISL:KATA:1,2014-05-04T23:00:00Z,30.2583,-88.2131,0.0,4.97,233.4,-9999.0,'1111122,1111122,1111122' 
DISL,ioos:station:DISL:KATA:1,2014-05-04T23:30:00Z,30.2583,-88.2131,0.0,5.41,235.0,-9999.0,'1111122,1111122,1111122' 
DISL,ioos:station:DISL:KATA:1,2014-05-05T00:00:00Z,30.2583,-88.2131,0.0,4.64,242.1,-9999.0,'1111122,1111122,1111122' 
DISL,ioos:station:DISL:KATA:1,2014-05-05T00:30:00Z,30.2583,-88.2131,0.0,4.77,237.8,-9999.0,'1111122,1111122,1111122' 
DISL,ioos:station:DISL:KATA:1,2014-05-05T01:00:00Z,30.2583,-88.2131,0.0,4.27,229.6,-9999.0,'1111122,1111122,1111122' 
DISL,ioos:station:DISL:KATA:1,2014-05-05T01:30:00Z,30.2583,-88.2131,0.0,4.79,232.7,-9999.0,'1111122,1111122,1111122' 
DISL,ioos:station:DISL:KATA:1,2014-05-05T02:00:00Z,30.2583,-88.2131,0.0,5.36,234.0,-9999.0,'1111122,1111122,1111122' 
DISL,ioos:station:DISL:KATA:1,2014-05-05T02:30:00Z,30.2583,-88.2131,0.0,5.47,235.1,-9999.0,'1111122,1111122,1111122' 
DISL,ioos:station:DISL:KATA:1,2014-05-05T03:00:00Z,30.2583,-88.2131,0.0,5.82,237.8,-9999.0,'1111122,1111122,1111122' 
DISL,ioos:station:DISL:KATA:1,2014-05-05T03:30:00Z,30.2583,-88.2131,0.0,5.91,234.9,-9999.0,'1111122,1111122,1111122' 
DISL,ioos:station:DISL:KATA:1,2014-05-05T04:00:00Z,30.2583,-88.2131,0.0,5.36,235.9,-9999.0,'1111122,1111122,1111122' 
DISL,ioos:station:DISL:KATA:1,2014-05-05T04:30:00Z,30.2583,-88.2131,0.0,5.56,243.0,-9999.0,'1111122,1111122,1111122' 